Regional Weather Roundup
Issued by NWS Upton, NY

Current Version | Previous Version | Graphics & Text | Print | Product List | Glossary Off
Versions: 1 2 3 4 5 6 7 8 9 10 11 12 13 14 15 16 17 18 19 20 21 22 23 24 25 26 27 28 29 30 31 32 33 34 35 36 37 38 39 40 41 42 43 44 45 46 47 48 49 50

000
ASUS41 KOKX 260605
RWROKX

REGIONAL WEATHER ROUNDUP
NATIONAL WEATHER SERVICE NEW YORK NY
100 AM EST MON JAN 26 2015

NOTE: "FAIR" INDICATES FEW OR NO CLOUDS BELOW 12,000 FEET WITH NO
SIGNIFICANT WEATHER AND/OR OBSTRUCTIONS TO VISIBILITY.

NYZ071-072-176-178-NJZ106-104-260700-
NEW YORK CITY METRO AREA


CITY           SKY/WX    TMP DP  RH WIND       PRES   REMARKS
CENTRAL PARK   CLOUDY    29   8  41 NE6       30.02R WCI  23
LAGUARDIA APRT CLOUDY    28   8  43 NE8       30.01R WCI  20
KENNEDY INTL   CLOUDY    30   8  39 NE10      30.02R WCI  21
NEWARK/LIBERTY CLOUDY    28  14  55 N14       30.00S WCI  17
BRNX BOT. GARD   N/A    N/A N/A N/A E2        30.03R
TETERBORO      CLOUDY    27   7  42 NE7       30.00R WCI  19
$$

NYZ177-179-078>081-260700-
LONG ISLAND NEW YORK

CITY           SKY/WX    TMP DP  RH WIND       PRES   REMARKS
FARMINGDALE    CLOUDY    28   8  43 NE15      30.01R WCI  16
ISLIP          CLOUDY    26   9  48 N13       29.99R WCI  15
SHIRLEY        CLOUDY    27   9  46 N7        30.01F WCI  19
WESTHAMPTON    CLOUDY    27   8  44 NE14      30.02S WCI  16
MONTAUK POINT    N/A     28  10  46 N12G20    30.03R WCI  18
$$

NYZ052-065-067-260700-
HUDSON VALLEY

CITY           SKY/WX    TMP DP  RH WIND       PRES   REMARKS
WHITE PLAINS   CLOUDY    21   1  41 N12       29.98R WCI   9
NEWBURGH       MOCLDY    19   5  53 E12       30.02S WCI   7
MONTGOMERY     CLOUDY    19   5  54 NE6       30.01S WCI  11
POUGHKEEPSIE   CLOUDY    20   2  45 NE10      30.04S WCI   9
ALBANY         MOCLDY    12  -1  56 N8        30.09F WCI   0
$$

NJZ001-105-106-008-010-013-015-019>022-104-260700-
NEW JERSEY

CITY           SKY/WX    TMP DP  RH WIND       PRES   REMARKS
NEWARK/LIBERTY CLOUDY    28  14  55 N14       30.00S WCI  17
TETERBORO      CLOUDY    27   7  42 NE7       30.00R WCI  19
CALDWELL       CLOUDY    27   8  44 E9        30.00R WCI  18
MORRISTOWN     CLOUDY    30  10  43 NE6       30.00R WCI  24
SOMERVILLE     CLOUDY    30   6  36 NE8       29.97S WCI  22
SUSSEX         CLOUDY    21   5  50 NE9       29.99S WCI  11
ANDOVER          N/A     23   8  52 VRB7      29.97S WCI  15
TRENTON        LGT SNOW  28  19  69 E8        29.97S WCI  20
MILLVILLE      CLOUDY    38  31  76 E9        29.91F WCI  31
ATLANTIC CITY  CLOUDY    36  25  64 NE15      29.93F WCI  27
WRIGHTSTOWN    CLOUDY    28  27  93 NE12      29.96S WCI  18
TOMS RIVER     CLOUDY    28  27  93 NE7       29.98S WCI  21
BELMAR         CLOUDY    30  16  55 NE13      29.97F WCI  20
$$

PAZ047>061-062-071-260700-
EASTERN PENNSYLVANIA

CITY           SKY/WX    TMP DP  RH WIND       PRES   REMARKS
PHILADELPHIA   CLOUDY    32  26  78 NE13      29.96S WCI  22
ALLENTOWN      MIX PCPN  27  13  55 NE10      29.96S WCI  17
SCRANTON       CLOUDY    20   7  57 NE12      29.95F WCI   8
$$

CTZ002-004>006-009-010-012-RIZ004-006-007-MAZ004-011-015-260700-
SOUTHERN NEW ENGLAND
 IN CT

CITY           SKY/WX    TMP DP  RH WIND       PRES   REMARKS
BRADLEY INTL   MOCLDY    16   3  56 NW6       30.04F WCI   7
HARTFORD       CLOUDY    20   5  52 N7        30.05S WCI  11
DANBURY        CLOUDY    19   0  43 N9        30.02S WCI   8
WTRBRY/OXFORD  CLOUDY    18   0  45 N7        29.99S WCI   8
BRIDGEPORT     CLOUDY    23   7  50 N14       30.03R WCI  11
MERIDEN        CLOUDY    21   5  50 N6        30.04R WCI  13
NEW HAVEN      CLOUDY    22   7  52 N15       30.02S WCI   9
CHESTER        FAIR      23   7  50 N7        30.01S WCI  15
GROTON         CLOUDY    23   5  46 N13       30.02S WCI  11
WILLIMANTIC    CLOUDY    19   6  57 N3        30.04S

 IN RI

CITY           SKY/WX    TMP DP  RH WIND       PRES   REMARKS
PROVIDENCE     MOCLDY    22   7  52 N7        30.04S WCI  13
BLOCK ISLAND   MOCLDY    27   7  43 N13G20    30.00S WCI  16
WESTERLY       CLOUDY    24   6  46 N14       30.02S WCI  12

 IN MA

CITY           SKY/WX    TMP DP  RH WIND       PRES   REMARKS
BOSTON         MOCLDY    17   2  51 NW15      30.05R WCI   2
WORCESTER      PTCLDY    14   0  53 N8        29.97S WCI   3
WESTFIELD      PTCLDY     8   1  73 E3        30.04F
PROVINCETOWN   PTCLDY    25  10  54 N15G24    30.04R WCI  12
NANTUCKET      PTCLDY    29  12  49 N14       30.01R WCI  18
$$

ANZ330-335-338-340-345-350-353-355-260700-
COASTAL MARINE OBSERVATIONS


STATION/POSITION TIME  SKY/WX   TEMP    WIND        PRES    VSBY  WAVE
                                AIR SEA DIR/SP/G                  HT/PER
                 (UTC)          (F)     (DEG/KT/KT) (MB)    (MI)  (FT/S)
NY HARB ENTRANCE 0600            33 42   50/ 14/ 17 1015.2          3/11
4S FIRE IS       0600               39                N/A           3/11
20S FIRE ISLAND  0500               41              1015.5          3/11
23SW MTP         0600                                 N/A           5/11
HUDSON CANYON    NOT AVBL
EXECUTION ROCKS  0600            28 35   10/ 14/ 17   N/A
WESTERN LI SOUND 0600            27      20/ 10/ 14   N/A           1/ 2
CENTRAL LI SOUND 0500            26 36  360/ 17/ 19   N/A           2/ 3
EASTERN LI SOUND NOT AVBL
ROBBINS REEF     0600            30      20/ 11/ 15 1014.6
$$


>>>>>>>>>>>>>>>>>>>>>>>>>>>> KEY <<<<<<<<<<<<<<<<<<<<<<<<<<<
>                                                          <
>     SKY/WX - SKY CONDITION/PRESENT WEATHER               <
>     TMP    - TEMPERATURE IN FAHRENHEIT                   <
>     DP     - DEWPOINT IN FAHRENHEIT                      <
>     RH     - RELATIVE HUMIDITY IN PERCENT                <
>     WIND   - DIRECTION AND SPEED IN MPH                  <
>     PRES   - MEAN SEA LEVEL PRESSURE IN INCHES OF HG     <
>     WCI    - WIND CHILL INDEX                            <
>     VSB    - VISIBILITY IN MILES                         <
>     HX     - HEAT INDEX                                  <
>     TC     - TEMPERATURE IN CELSIUS                      <
>     VRB    - VARIABLE WIND DIRECTION                     <
>                                                          <
>>>>>>>>>>>>>>>>>>>>>>>>>>>> KEY <<<<<<<<<<<<<<<<<<<<<<<<<<<





USA.gov is the U.S. government's official web portal to all federal, state and local government web resources and services.